Location: Kellogg
(38.0159°N, 90.0546°W)
Time: 11:35:30
(UTC+00:00)

Courier 1B - Pass Details

Date: 07 September 2024
Orbit: 962 x 1208 km, 28.3° (Epoch: 11 October)

Event Time Altitude Azimuth Distance (km) Brightness Sun altitude
Rises 23:39:06 0° 242° (WSW) 4,079 11.9 7.1°
Reaches altitude 10° 23:42:09 10° 235° (SW) 3,130 11.1 6.5°
Maximum altitude 23:49:12 37° 171° (S) 1,771 8.9 5.1°
Drops below altitude 10° 23:56:12 10° 107° (ESE) 3,113 9.5 3.8°
Sets 23:59:14 0° 99° (E) 4,055 10.0 3.2°
